Location: Banska Bystrica
(48.7330°N, 19.1500°E)
Time: 07:52:43
(UTC+02:00)

ISS - Pass Details

Date: 28 March 2019
Orbit: 408 x 410 km, 51.6° (Epoch: 24 April)

Event Time Altitude Azimuth Distance (km) Brightness Sun altitude
Rises 20:56:03 0° 287° (WNW) 2,338 1.1 -26.1°
Reaches altitude 10° 20:58:10 10° 291° (WNW) 1,475 -0.1 -26.4°
Enters shadow 20:59:38 24° 299° (WNW) 903 -1.4 -26.5°
